Time,TemperatureF,DewpointF,PressureIn,WindDirection,WindDirectionDegrees,WindSpeedMPH,WindSpeedGustMPH,Humidity,HourlyPrecipIn,Conditions,Clouds,dailyrainin,SoftwareType,DateUTC
2013-02-18 14:22:00,11.0,10.0,-100.00,WNW,295,23.0,32.0,75,0.00,,,0.03,,2013-02-18 20:22:00,
2013-02-18 14:33:00,11.0,10.0,-100.00,NW,310,27.0,37.0,75,0.00,,,0.03,,2013-02-18 20:33:00,
2013-02-18 14:42:00,11.0,10.0,-100.00,WNW,300,27.0,34.0,75,0.00,,,0.03,,2013-02-18 20:42:00,
2013-02-18 14:52:00,11.0,10.0,-100.00,WNW,300,22.0,33.0,75,0.00,,,0.03,,2013-02-18 20:52:00,
2013-02-18 15:03:00,11.0,9.0,-100.00,NW,305,24.0,32.0,74,0.01,,,0.03,,2013-02-18 21:03:00,
2013-02-18 15:12:00,11.0,10.0,-100.00,WNW,295,21.0,31.0,74,0.01,,,0.03,,2013-02-18 21:12:00,
2013-02-18 15:22:00,11.0,9.0,-100.00,WNW,295,24.0,32.0,72,0.00,,,0.03,,2013-02-18 21:22:00,
2013-02-18 15:32:00,11.0,9.0,-100.00,WNW,295,29.0,37.0,70,0.00,,,0.03,,2013-02-18 21:32:00,
2013-02-18 15:42:00,11.0,9.0,-100.00,WNW,300,24.0,32.0,73,0.00,,,0.03,,2013-02-18 21:42:00,
2013-02-18 15:52:00,11.0,7.0,-100.00,NW,305,23.0,32.0,73,0.00,,,0.03,,2013-02-18 21:52:00,
2013-02-18 16:02:00,11.0,7.0,-100.00,WNW,295,23.0,29.0,74,0.00,,,0.03,,2013-02-18 22:02:00,
2013-02-18 16:12:00,11.0,7.0,-100.00,WNW,300,23.0,29.0,75,0.00,,,0.03,,2013-02-18 22:12:00,
2013-02-18 16:22:00,11.0,7.0,-100.00,NW,310,25.0,29.0,74,0.01,,,0.03,,2013-02-18 22:22:00,
2013-02-18 16:33:00,11.0,7.0,-100.00,WNW,290,20.0,32.0,75,0.00,,,0.03,,2013-02-18 22:33:00,
2013-02-18 16:42:00,11.0,5.0,-100.00,NW,305,22.0,29.0,73,0.00,,,0.03,,2013-02-18 22:42:00,
2013-02-18 16:52:00,11.0,5.0,-100.00,WNW,300,21.0,29.0,73,0.00,,,0.03,,2013-02-18 22:52:00,
2013-02-18 17:02:00,11.0,5.0,-100.00,WNW,290,21.0,27.0,75,0.00,,,0.03,,2013-02-18 23:02:00,
2013-02-18 17:12:00,11.0,5.0,-100.00,WNW,300,19.0,26.0,75,0.00,,,0.03,,2013-02-18 23:12:00,
2013-02-18 17:22:00,11.0,5.0,-100.00,WNW,300,23.0,26.0,74,0.00,,,0.03,,2013-02-18 23:22:00,
2013-02-18 17:42:00,11.0,3.0,-100.00,WNW,300,22.0,28.0,73,0.01,,,0.04,,2013-02-18 23:42:00,
2013-02-18 17:52:00,11.0,3.0,-100.00,WNW,300,23.0,30.0,73,0.00,,,0.04,,2013-02-18 23:52:00,
2013-02-18 18:02:00,11.0,3.0,-100.00,NW,305,21.0,29.0,74,0.00,,,0.04,,2013-02-19 00:02:00,
2013-02-18 18:12:00,11.0,3.0,-100.00,WNW,300,20.0,27.0,75,0.00,,,0.04,,2013-02-19 00:12:00,
2013-02-18 18:22:00,11.0,3.0,-100.00,WNW,300,20.0,30.0,75,0.00,,,0.04,,2013-02-19 00:22:00,
2013-02-18 18:34:00,11.0,3.0,-100.00,WNW,300,24.0,32.0,75,0.00,,,0.04,,2013-02-19 00:34:00,
2013-02-18 18:42:00,11.0,3.0,-100.00,NW,305,19.0,27.0,76,0.00,,,0.04,,2013-02-19 00:42:00,
2013-02-18 18:53:00,11.0,1.0,-100.00,WNW,300,22.0,26.0,76,0.01,,,0.04,,2013-02-19 00:53:00,
2013-02-18 19:03:00,11.0,1.0,-100.00,WNW,300,18.0,27.0,77,0.00,,,0.04,,2013-02-19 01:03:00,
2013-02-18 19:13:00,11.0,1.0,-100.00,NW,305,19.0,27.0,78,0.00,,,0.04,,2013-02-19 01:13:00,
2013-02-18 19:23:00,11.0,1.0,-100.00,WNW,300,20.0,26.0,77,0.00,,,0.04,,2013-02-19 01:23:00,
2013-02-18 19:34:00,11.0,1.0,-100.00,NW,305,20.0,24.0,75,0.00,,,0.04,,2013-02-19 01:34:00,
2013-02-18 19:43:00,11.0,1.0,-100.00,NW,315,18.0,26.0,74,0.00,,,0.04,,2013-02-19 01:43:00,
2013-02-18 19:53:00,11.0,1.0,-100.00,NW,315,22.0,29.0,73,0.01,,,0.04,,2013-02-19 01:53:00,
2013-02-18 20:02:00,11.0,1.0,-100.00,NW,305,19.0,25.0,73,0.00,,,0.04,,2013-02-19 02:02:00,
2013-02-18 20:13:00,11.0,1.0,-100.00,NW,315,24.0,27.0,74,0.01,,,0.04,,2013-02-19 02:13:00,
2013-02-18 20:22:00,11.0,1.0,-100.00,NW,310,17.0,28.0,74,0.00,,,0.04,,2013-02-19 02:22:00,
2013-02-18 20:33:00,11.0,1.0,-100.00,NW,310,17.0,23.0,74,0.00,,,0.04,,2013-02-19 02:33:00,
2013-02-18 20:42:00,11.0,1.0,-100.00,NW,315,15.0,21.0,76,0.00,,,0.04,,2013-02-19 02:42:00,
2013-02-18 20:53:00,11.0,1.0,-100.00,NW,315,21.0,26.0,78,0.01,,,0.04,,2013-02-19 02:53:00,
2013-02-18 21:05:00,11.0,1.0,-100.00,NW,315,21.0,24.0,80,0.01,,,0.04,,2013-02-19 03:05:00,
2013-02-18 21:13:00,11.0,1.0,-100.00,NW,310,21.0,24.0,81,0.02,,,0.05,,2013-02-19 03:13:00,
2013-02-18 21:23:00,11.0,1.0,-100.00,NW,310,19.0,25.0,82,0.02,,,0.05,,2013-02-19 03:23:00,
2013-02-18 21:33:00,11.0,1.0,-100.00,NW,310,23.0,27.0,82,0.02,,,0.05,,2013-02-19 03:33:00,
2013-02-18 21:43:00,11.0,1.0,-100.00,NW,310,20.0,26.0,82,0.01,,,0.05,,2013-02-19 03:43:00,
2013-02-18 21:52:00,11.0,1.0,-100.00,NW,315,22.0,27.0,82,0.02,,,0.06,,2013-02-19 03:52:00,
2013-02-18 22:02:00,11.0,1.0,-100.00,NW,310,19.0,27.0,82,0.01,,,0.06,,2013-02-19 04:02:00,
2013-02-18 22:13:00,11.0,1.0,-100.00,NW,315,20.0,27.0,81,0.01,,,0.06,,2013-02-19 04:13:00,
2013-02-18 22:23:00,11.0,0.0,-100.00,NW,315,20.0,26.0,80,0.00,,,0.06,,2013-02-19 04:23:00,
2013-02-18 22:33:00,11.0,0.0,-100.00,NW,310,22.0,29.0,79,0.00,,,0.06,,2013-02-19 04:33:00,
2013-02-18 22:43:00,11.0,0.0,-100.00,NW,320,19.0,28.0,78,0.00,,,0.06,,2013-02-19 04:43:00,
2013-02-18 22:52:00,11.0,0.0,-100.00,NW,310,22.0,27.0,80,0.01,,,0.06,,2013-02-19 04:52:00,
2013-02-18 23:02:00,11.0,0.0,-100.00,NW,315,21.0,28.0,80,0.00,,,0.06,,2013-02-19 05:02:00,
2013-02-18 23:12:00,11.0,0.0,-100.00,NW,315,22.0,27.0,80,0.01,,,0.06,,2013-02-19 05:12:00,
2013-02-18 23:22:00,11.0,0.0,-100.00,NW,315,22.0,32.0,81,0.00,,,0.06,,2013-02-19 05:22:00,
2013-02-18 23:32:00,11.0,0.0,-100.00,NW,315,23.0,30.0,81,0.00,,,0.06,,2013-02-19 05:32:00,
2013-02-18 23:43:00,11.0,0.0,-100.00,NW,315,21.0,29.0,81,0.00,,,0.06,,2013-02-19 05:43:00,
2013-02-18 23:52:00,11.0,0.0,-100.00,NW,310,22.0,26.0,80,0.00,,,0.06,,2013-02-19 05:52:00,